Tracking 23581 objects as of 27-Jul-2021
HD Live streaming from Space Station
objects crossing your sky now

COSMOS 2494 (SKRL 756)

Track COSMOS 2494 (SKRL 756) now!
10-day predictions
COSMOS 2494 (SKRL 756) is classified as:


NORAD ID: 39491
Int'l Code: 2013-078B
Perigee: 587.9 km
Apogee: 620.9 km
Inclination: 82.4 °
Period: 96.6 minutes
Semi major axis: 6975 km
RCS: Unknown
Launch date: December 28, 2013
Source: Commonwealth of Independent States (former USSR) (CIS)
Launch site: PLESETSK MISSILE AND SPACE COMPLEX (PKMTR)
aabbcc
Your satellite tracking list
Your tracking list is empty




NASA's NSSDC Master Catalog

Two Line Element Set (TLE):
1 39491U 13078B   21208.42234230  .00000411  00000-0  39525-4 0  9992
2 39491  82.4188 179.9699 0023641  74.7820 285.6010 14.90222463411936
Source of the keplerian elements: AFSPC